| time (UTC) | temp F | wind direction | speed MPH | gust MPH | rain 1hr in | rain 24hr in | rain mn in | humidity % | barometer mb |
| 20260905000010 | 73 | 126 | 0.0 | 0.0 | 0.00 | 0.05 | 0.00 | 79 | 1014.2 |
| 20260904235732 | 73 | 126 | 0.0 | 0.0 | 0.00 | 0.05 | 0.00 | 79 | 1014.2 |
| 20260904234958 | 73 | 126 | 0.0 | 0.0 | 0.00 | 0.05 | 0.00 | 78 | 1014.1 |
| 20260904234451 | 74 | 126 | 0.0 | 0.0 | 0.00 | 0.05 | 0.00 | 77 | 1014.1 |
| 20260904233945 | 74 | 126 | 0.0 | 0.0 | 0.00 | 0.05 | 0.00 | 78 | 1014.2 |
| 20260904233440 | 74 | 126 | 0.0 | 0.0 | 0.00 | 0.06 | 0.00 | 76 | 1014.3 |
| 20260904232933 | 75 | 126 | 0.0 | 0.0 | 0.00 | 0.06 | 0.00 | 76 | 1014.4 |
| 20260904232646 | 75 | 126 | 0.0 | 0.0 | 0.00 | 0.06 | 0.00 | 76 | 1014.3 |
| 20260904232144 | 75 | 126 | 0.0 | 0.0 | 0.00 | 0.06 | 0.00 | 75 | 1014.4 |
| 20260904231416 | 75 | 126 | 0.0 | 0.0 | 0.00 | 0.06 | 0.00 | 74 | 1014.4 |
| 20260904230910 | 75 | 126 | 0.0 | 0.0 | 0.00 | 0.07 | 0.00 | 74 | 1014.3 |
| 20260904230404 | 76 | 126 | 0.0 | 0.0 | 0.00 | 0.07 | 0.00 | 73 | 1014.3 |
| 20260904225857 | 76 | 126 | 0.0 | 0.0 | 0.00 | 0.07 | 0.00 | 72 | 1014.2 |
| 20260904225351 | 77 | 126 | 0.0 | 0.0 | 0.00 | 0.07 | 0.00 | 71 | 1014.2 |
| 20260904224900 | 77 | 126 | 0.0 | 0.0 | 0.00 | 0.07 | 0.00 | 69 | 1014.1 |
| 20260904224605 | 78 | 126 | 0.0 | 0.0 | 0.00 | 0.07 | 0.00 | 68 | 1014.2 |
| 20260904223840 | 78 | 126 | 0.0 | 0.0 | 0.00 | 0.07 | 0.00 | 67 | 1014.2 |
| 20260904223600 | 78 | 126 | 0.0 | 0.0 | 0.00 | 0.07 | 0.00 | 66 | 1014.2 |
| 20260904222836 | 78 | 126 | 0.0 | 1.0 | 0.00 | 0.07 | 0.00 | 67 | 1014.2 |
| 20260904222335 | 79 | 126 | 0.0 | 1.0 | 0.00 | 0.07 | 0.00 | 67 | 1014.2 |
| 20260904221836 | 79 | 126 | 0.0 | 3.0 | 0.00 | 0.07 | 0.00 | 65 | 1014.1 |
| 20260904221334 | 79 | 126 | 0.0 | 3.0 | 0.00 | 0.07 | 0.00 | 65 | 1014.2 |
| 20260904221057 | 79 | 178 | 0.0 | 2.0 | 0.00 | 0.07 | 0.00 | 64 | 1014.2 |
| 20260904220331 | 79 | 178 | 0.0 | 2.0 | 0.00 | 0.07 | 0.00 | 64 | 1014.2 |
| 20260904215832 | 80 | 196 | 0.0 | 1.0 | 0.00 | 0.07 | 0.00 | 65 | 1014.2 |
| 20260904215329 | 80 | 195 | 0.0 | 1.0 | 0.00 | 0.07 | 0.00 | 63 | 1014.1 |
| 20260904214828 | 80 | 276 | 0.0 | 2.0 | 0.00 | 0.07 | 0.00 | 63 | 1014.0 |
| 20260904214328 | 80 | 276 | 0.0 | 3.0 | 0.00 | 0.07 | 0.00 | 63 | 1013.9 |
| 20260904213827 | 80 | 277 | 0.0 | 4.0 | 0.00 | 0.07 | 0.00 | 63 | 1014.0 |
| 20260904213327 | 80 | 286 | 0.0 | 4.0 | 0.00 | 0.07 | 0.00 | 62 | 1014.0 |
| 20260904212828 | 80 | 267 | 0.0 | 3.0 | 0.00 | 0.07 | 0.00 | 64 | 1013.9 |
| 20260904212327 | 80 | 271 | 0.0 | 4.0 | 0.00 | 0.07 | 0.00 | 63 | 1014.0 |
| 20260904211825 | 80 | 103 | 0.0 | 4.0 | 0.00 | 0.07 | 0.00 | 63 | 1014.0 |
| 20260904211325 | 80 | 163 | 0.0 | 4.0 | 0.00 | 0.07 | 0.00 | 64 | 1013.6 |
| 20260904210823 | 80 | 148 | 1.0 | 6.0 | 0.00 | 0.07 | 0.00 | 64 | 1014.1 |
| 20260904210554 | 80 | 278 | 0.0 | 6.0 | 0.00 | 0.07 | 0.00 | 64 | 1014.3 |
| 20260904210040 | 80 | 213 | 1.0 | 4.0 | 0.00 | 0.07 | 0.00 | 64 | 1014.4 |
| 20260904205323 | 80 | 248 | 0.0 | 4.0 | 0.00 | 0.07 | 0.00 | 63 | 1014.4 |
| 20260904204824 | 80 | 310 | 0.0 | 4.0 | 0.00 | 0.07 | 0.00 | 63 | 1014.5 |
| 20260904204550 | 80 | 282 | 0.0 | 2.0 | 0.00 | 0.07 | 0.00 | 65 | 1014.4 |
| 20260904203824 | 79 | 284 | 0.0 | 3.0 | 0.00 | 0.07 | 0.00 | 66 | 1014.4 |
| 20260904203323 | 79 | 284 | 0.0 | 3.0 | 0.00 | 0.07 | 0.00 | 68 | 1014.3 |
| 20260904202823 | 78 | 128 | 0.0 | 4.0 | 0.00 | 0.07 | 0.00 | 69 | 1014.6 |
| 20260904202323 | 78 | 184 | 0.0 | 4.0 | 0.00 | 0.07 | 0.00 | 69 | 1014.6 |
| 20260904201821 | 79 | 257 | 0.0 | 2.0 | 0.00 | 0.07 | 0.00 | 67 | 1014.5 |
| 20260904201321 | 79 | 291 | 0.0 | 3.0 | 0.00 | 0.07 | 0.00 | 67 | 1014.7 |
| 20260904200821 | 79 | 96 | 0.0 | 4.0 | 0.00 | 0.07 | 0.00 | 68 | 1014.8 |
| 20260904200321 | 79 | 265 | 1.0 | 7.0 | 0.00 | 0.07 | 0.00 | 67 | 1014.8 |
| 20260904195822 | 79 | 270 | 1.0 | 7.0 | 0.00 | 0.07 | 0.00 | 67 | 1014.9 |
| 20260904195322 | 80 | 233 | 1.0 | 8.0 | 0.00 | 0.07 | 0.00 | 65 | 1015.0 |
| 20260904194822 | 80 | 122 | 1.0 | 8.0 | 0.00 | 0.07 | 0.00 | 67 | 1015.0 |
| 20260904194321 | 80 | 342 | 1.0 | 8.0 | 0.00 | 0.07 | 0.00 | 65 | 1014.9 |
| 20260904193822 | 79 | 129 | 1.0 | 4.0 | 0.00 | 0.07 | 0.00 | 65 | 1014.9 |
| 20260904193322 | 80 | 112 | 1.0 | 8.0 | 0.00 | 0.07 | 0.00 | 64 | 1015.0 |
| 20260904193312 | 80 | 142 | 0.0 | 8.0 | 0.00 | 0.07 | 0.00 | 66 | 1015.1 |
| 20260904192543 | 80 | 234 | 0.0 | 2.0 | 0.00 | 0.07 | 0.00 | 65 | 1015.2 |
| 20260904191821 | 80 | 258 | 0.0 | 4.0 | 0.00 | 0.07 | 0.00 | 65 | 1015.1 |
| 20260904191322 | 80 | 286 | 1.0 | 7.0 | 0.00 | 0.07 | 0.00 | 65 | 1015.0 |
| 20260904190821 | 80 | 204 | 1.0 | 7.0 | 0.00 | 0.07 | 0.00 | 65 | 1015.2 |
| 20260904190804 | 80 | 123 | 0.0 | 5.0 | 0.00 | 0.07 | 0.00 | 67 | 1015.3 |
| 20260904185822 | 80 | 171 | 1.0 | 4.0 | 0.00 | 0.07 | 0.00 | 67 | 1015.3 |
| 20260904185320 | 80 | 251 | 1.0 | 4.0 | 0.00 | 0.07 | 0.00 | 66 | 1015.3 |
| 20260904184820 | 79 | 171 | 1.0 | 6.0 | 0.00 | 0.07 | 0.00 | 66 | 1015.3 |
| 20260904184319 | 79 | 263 | 1.0 | 6.0 | 0.00 | 0.07 | 0.00 | 67 | 1015.4 |
| 20260904183814 | 79 | 119 | 1.0 | 10.0 | 0.00 | 0.07 | 0.00 | 68 | 1015.4 |
| 20260904183313 | 79 | 111 | 1.0 | 10.0 | 0.00 | 0.07 | 0.00 | 66 | 1015.5 |
| 20260904182811 | 78 | 119 | 0.0 | 6.0 | 0.00 | 0.07 | 0.00 | 67 | 1015.7 |
| 20260904182532 | 78 | 280 | 0.0 | 6.0 | 0.00 | 0.07 | 0.00 | 67 | 1015.7 |
| 20260904181805 | 78 | 148 | 0.0 | 5.0 | 0.00 | 0.07 | 0.00 | 67 | 1015.9 |
| 20260904181519 | 78 | 247 | 0.0 | 5.0 | 0.00 | 0.07 | 0.00 | 67 | 1015.9 |
| 20260904180805 | 78 | 342 | 0.0 | 4.0 | 0.00 | 0.07 | 0.00 | 69 | 1016.0 |
| 20260904180246 | 78 | 263 | 0.0 | 3.0 | 0.00 | 0.07 | 0.00 | 69 | 1016.2 |
| 20260904180004 | 78 | 128 | 1.0 | 6.0 | 0.00 | 0.07 | 0.00 | 68 | 1016.2 |
| 20260904175234 | 78 | 290 | 1.0 | 8.0 | 0.00 | 0.07 | 0.00 | 67 | 1016.2 |
| 20260904174728 | 79 | 192 | 1.0 | 9.0 | 0.00 | 0.07 | 0.00 | 67 | 1016.3 |
| 20260904174223 | 79 | 128 | 0.0 | 7.0 | 0.00 | 0.07 | 0.00 | 69 | 1016.4 |
| 20260904173716 | 79 | 240 | 1.0 | 4.0 | 0.00 | 0.07 | 0.00 | 68 | 1016.5 |
| 20260904173211 | 79 | 308 | 1.0 | 7.0 | 0.00 | 0.07 | 0.00 | 67 | 1016.7 |
| 20260904172910 | 79 | 171 | 1.0 | 8.0 | 0.00 | 0.07 | 0.00 | 68 | 1016.7 |
| 20260904172903 | 79 | 15 | 1.0 | 7.0 | 0.00 | 0.07 | 0.00 | 67 | 1016.7 |
| 20260904171653 | 79 | 72 | 1.0 | 8.0 | 0.00 | 0.07 | 0.00 | 67 | 1016.8 |
| 20260904171148 | 78 | 278 | 1.0 | 8.0 | 0.00 | 0.07 | 0.00 | 67 | 1016.8 |
| 20260904170905 | 78 | 96 | 1.0 | 10.0 | 0.00 | 0.07 | 0.00 | 67 | 1016.6 |
| 20260904170134 | 79 | 131 | 1.0 | 10.0 | 0.00 | 0.07 | 0.00 | 66 | 1016.7 |
| 20260904165628 | 79 | 137 | 1.0 | 10.0 | 0.00 | 0.07 | 0.00 | 67 | 1016.7 |
| 20260904165352 | 79 | 252 | 0.0 | 7.0 | 0.00 | 0.07 | 0.00 | 67 | 1016.7 |
| 20260904164615 | 79 | 142 | 1.0 | 7.0 | 0.00 | 0.07 | 0.00 | 68 | 1016.8 |
| 20260904164331 | 78 | 104 | 2.0 | 9.0 | 0.00 | 0.07 | 0.00 | 67 | 1016.7 |
| 20260904163602 | 79 | 74 | 2.0 | 9.0 | 0.00 | 0.07 | 0.00 | 66 | 1016.7 |
| 20260904163057 | 79 | 32 | 1.0 | 8.0 | 0.00 | 0.07 | 0.00 | 67 | 1016.6 |
| 20260904162550 | 79 | 184 | 0.0 | 7.0 | 0.00 | 0.07 | 0.00 | 67 | 1016.6 |
| 20260904162057 | 78 | 57 | 1.0 | 6.0 | 0.00 | 0.07 | 0.00 | 68 | 1016.6 |
| 20260904161538 | 78 | 244 | 1.0 | 6.0 | 0.00 | 0.07 | 0.00 | 65 | 1016.7 |
| 20260904161039 | 78 | 254 | 0.0 | 5.0 | 0.00 | 0.07 | 0.00 | 67 | 1016.6 |
| 20260904160526 | 78 | 286 | 1.0 | 6.0 | 0.00 | 0.07 | 0.00 | 69 | 1016.6 |
| 20260904160503 | 77 | 288 | 1.0 | 6.0 | 0.00 | 0.07 | 0.00 | 68 | 1016.6 |
| 20260904155515 | 77 | 265 | 0.0 | 5.0 | 0.00 | 0.07 | 0.00 | 69 | 1016.7 |
| 20260904155209 | 77 | 306 | 0.0 | 0.0 | 0.00 | 0.07 | 0.00 | 70 | 1016.6 |
| 20260904155200 | 77 | 136 | 0.0 | 5.0 | 0.00 | 0.07 | 0.00 | 71 | 1016.6 |
| 20260904153957 | 76 | 215 | 0.0 | 1.0 | 0.00 | 0.07 | 0.00 | 73 | 1016.6 |
| 20260904153937 | 76 | 217 | 0.0 | 4.0 | 0.00 | 0.07 | 0.00 | 71 | 1016.6 |
| 20260904153430 | 76 | 159 | 0.0 | 5.0 | 0.00 | 0.07 | 0.00 | 72 | 1016.7 |
| 20260904152701 | 76 | 190 | 0.0 | 5.0 | 0.00 | 0.07 | 0.00 | 72 | 1016.7 |
| 20260904151932 | 75 | 121 | 0.0 | 3.0 | 0.00 | 0.07 | 0.00 | 72 | 1016.8 |
| 20260904151433 | 75 | 142 | 1.0 | 7.0 | 0.00 | 0.07 | 0.00 | 73 | 1016.8 |
| 20260904151147 | 75 | 88 | 1.0 | 7.0 | 0.00 | 0.07 | 0.00 | 72 | 1016.8 |
| 20260904150414 | 76 | 147 | 1.0 | 8.0 | 0.00 | 0.07 | 0.00 | 72 | 1016.8 |
| 20260904150134 | 76 | 94 | 1.0 | 8.0 | 0.00 | 0.07 | 0.00 | 72 | 1016.8 |
| 20260904145623 | 75 | 261 | 0.0 | 4.0 | 0.00 | 0.07 | 0.00 | 74 | 1016.9 |
| 20260904144856 | 75 | 104 | 0.0 | 4.0 | 0.00 | 0.07 | 0.00 | 74 | 1016.8 |
| 20260904144350 | 75 | 223 | 0.0 | 5.0 | 0.00 | 0.07 | 0.00 | 75 | 1016.8 |
| 20260904143844 | 75 | 199 | 1.0 | 5.0 | 0.00 | 0.07 | 0.00 | 74 | 1016.8 |
| 20260904143339 | 74 | 90 | 0.0 | 4.0 | 0.00 | 0.07 | 0.00 | 74 | 1016.7 |
| 20260904142833 | 74 | 172 | 0.0 | 2.0 | 0.00 | 0.07 | 0.00 | 74 | 1016.6 |
| 20260904142326 | 74 | 317 | 0.0 | 4.0 | 0.00 | 0.07 | 0.00 | 75 | 1016.7 |
| 20260904141833 | 74 | 274 | 0.0 | 4.0 | 0.00 | 0.07 | 0.00 | 74 | 1016.6 |
| 20260904141538 | 74 | 306 | 0.0 | 1.0 | 0.00 | 0.07 | 0.00 | 77 | 1016.6 |
| 20260904140808 | 74 | 304 | 0.0 | 3.0 | 0.00 | 0.07 | 0.00 | 75 | 1016.7 |
| 20260904140303 | 74 | 77 | 0.0 | 3.0 | 0.00 | 0.07 | 0.00 | 77 | 1016.8 |
| 20260904135756 | 73 | 267 | 0.0 | 4.0 | 0.00 | 0.07 | 0.00 | 79 | 1016.9 |
| 20260904135251 | 73 | 251 | 0.0 | 4.0 | 0.00 | 0.07 | 0.00 | 78 | 1017.0 |
| 20260904134744 | 72 | 282 | 0.0 | 5.0 | 0.00 | 0.07 | 0.00 | 79 | 1016.9 |
| 20260904134239 | 72 | 282 | 0.0 | 5.0 | 0.00 | 0.07 | 0.00 | 79 | 1016.7 |
| 20260904133733 | 72 | 151 | 0.0 | 3.0 | 0.00 | 0.07 | 0.00 | 78 | 1016.7 |
| 20260904133232 | 72 | 153 | 0.0 | 4.0 | 0.00 | 0.07 | 0.00 | 80 | 1016.6 |
| 20260904132732 | 71 | 90 | 0.0 | 6.0 | 0.00 | 0.07 | 0.00 | 80 | 1016.7 |
| 20260904132233 | 71 | 180 | 1.0 | 6.0 | 0.00 | 0.07 | 0.00 | 80 | 1016.7 |
| 20260904131951 | 71 | 171 | 0.0 | 4.0 | 0.00 | 0.07 | 0.00 | 82 | 1016.7 |
| 20260904131234 | 71 | 135 | 1.0 | 7.0 | 0.00 | 0.07 | 0.00 | 82 | 1016.8 |
| 20260904130733 | 71 | 159 | 0.0 | 7.0 | 0.00 | 0.07 | 0.00 | 82 | 1016.8 |
| 20260904130233 | 71 | 223 | 0.0 | 2.0 | 0.00 | 0.07 | 0.00 | 82 | 1016.9 |
| 20260904125734 | 71 | 206 | 0.0 | 1.0 | 0.00 | 0.07 | 0.00 | 84 | 1017.0 |
| 20260904125459 | 70 | 206 | 0.0 | 7.0 | 0.00 | 0.09 | 0.00 | 84 | 1017.1 |
| 20260904124952 | 70 | 169 | 1.0 | 7.0 | 0.00 | 0.11 | 0.00 | 84 | 1017.1 |
| 20260904124233 | 70 | 143 | 0.0 | 4.0 | 0.00 | 0.13 | 0.00 | 84 | 1016.9 |
| 20260904123732 | 70 | 147 | 0.0 | 3.0 | 0.00 | 0.16 | 0.00 | 85 | 1017.0 |
| 20260904123455 | 70 | 140 | 1.0 | 5.0 | 0.00 | 0.19 | 0.00 | 86 | 1017.1 |
| 20260904122745 | 70 | 144 | 0.0 | 5.0 | 0.00 | 0.21 | 0.00 | 86 | 1017.1 |
| 20260904122507 | 69 | 92 | 0.0 | 3.0 | 0.00 | 0.22 | 0.00 | 87 | 1017.1 |
| 20260904121733 | 69 | 87 | 0.0 | 0.0 | 0.00 | 0.23 | 0.00 | 87 | 1017.0 |
| 20260904121458 | 69 | 87 | 0.0 | 0.0 | 0.00 | 0.27 | 0.00 | 87 | 1017.0 |
| 20260904120734 | 69 | 87 | 0.0 | 0.0 | 0.00 | 0.29 | 0.00 | 87 | 1016.9 |
| 20260904120456 | 69 | 87 | 0.0 | 0.0 | 0.00 | 0.29 | 0.00 | 88 | 1017.0 |
| 20260904115954 | 69 | 87 | 0.0 | 0.0 | 0.00 | 0.29 | 0.00 | 88 | 1017.0 |
| 20260904115233 | 68 | 87 | 0.0 | 2.0 | 0.00 | 0.29 | 0.00 | 88 | 1016.8 |
| 20260904114732 | 68 | 87 | 0.0 | 2.0 | 0.00 | 0.29 | 0.00 | 88 | 1016.9 |
| 20260904114232 | 68 | 87 | 0.0 | 0.0 | 0.00 | 0.29 | 0.00 | 88 | 1017.0 |
| 20260904113732 | 68 | 87 | 0.0 | 0.0 | 0.00 | 0.29 | 0.00 | 88 | 1017.2 |
| 20260904113232 | 68 | 87 | 0.0 | 0.0 | 0.00 | 0.29 | 0.00 | 88 | 1017.1 |
| 20260904112730 | 68 | 87 | 0.0 | 0.0 | 0.00 | 0.29 | 0.00 | 89 | 1017.1 |
| 20260904112230 | 68 | 87 | 0.0 | 0.0 | 0.00 | 0.29 | 0.00 | 88 | 1016.9 |
| 20260904111729 | 68 | 87 | 0.0 | 0.0 | 0.00 | 0.29 | 0.00 | 88 | 1016.9 |
| 20260904111455 | 68 | 87 | 0.0 | 0.0 | 0.00 | 0.29 | 0.00 | 88 | 1016.9 |
| 20260904110727 | 68 | 87 | 0.0 | 2.0 | 0.00 | 0.29 | 0.00 | 88 | 1017.0 |
| 20260904110448 | 68 | 87 | 0.0 | 2.0 | 0.00 | 0.29 | 0.00 | 88 | 1016.9 |
| 20260904105724 | 68 | 87 | 0.0 | 0.0 | 0.00 | 0.29 | 0.00 | 88 | 1016.8 |
| 20260904105224 | 68 | 87 | 0.0 | 0.0 | 0.00 | 0.29 | 0.00 | 88 | 1017.0 |
| 20260904104718 | 68 | 87 | 0.0 | 0.0 | 0.00 | 0.29 | 0.00 | 88 | 1017.0 |
| 20260904104211 | 68 | 87 | 0.0 | 0.0 | 0.00 | 0.29 | 0.00 | 88 | 1016.9 |
| 20260904103923 | 68 | 87 | 0.0 | 0.0 | 0.00 | 0.29 | 0.00 | 89 | 1016.9 |
| 20260904103159 | 68 | 87 | 0.0 | 2.0 | 0.00 | 0.29 | 0.00 | 89 | 1016.9 |
| 20260904102653 | 68 | 87 | 0.0 | 2.0 | 0.00 | 0.29 | 0.00 | 89 | 1016.8 |
| 20260904102147 | 68 | 87 | 0.0 | 0.0 | 0.00 | 0.29 | 0.00 | 89 | 1016.8 |
| 20260904101642 | 68 | 87 | 0.0 | 3.0 | 0.00 | 0.29 | 0.00 | 89 | 1016.8 |
| 20260904101135 | 68 | 87 | 0.0 | 3.0 | 0.00 | 0.29 | 0.00 | 89 | 1016.7 |
| 20260904100631 | 68 | 87 | 0.0 | 0.0 | 0.00 | 0.29 | 0.00 | 89 | 1016.7 |
| 20260904100124 | 68 | 87 | 0.0 | 0.0 | 0.00 | 0.29 | 0.00 | 89 | 1016.7 |
| 20260904095840 | 68 | 87 | 0.0 | 0.0 | 0.00 | 0.29 | 0.00 | 90 | 1016.6 |
| 20260904095111 | 68 | 87 | 0.0 | 0.0 | 0.00 | 0.29 | 0.00 | 90 | 1016.5 |
| 20260904094605 | 68 | 87 | 0.0 | 0.0 | 0.00 | 0.29 | 0.00 | 90 | 1016.4 |
| 20260904094320 | 68 | 87 | 0.0 | 0.0 | 0.00 | 0.29 | 0.00 | 90 | 1016.5 |
| 20260904093553 | 68 | 87 | 0.0 | 0.0 | 0.00 | 0.29 | 0.00 | 90 | 1016.5 |
| 20260904093048 | 68 | 87 | 0.0 | 0.0 | 0.00 | 0.29 | 0.00 | 90 | 1016.6 |
| 20260904092541 | 68 | 87 | 0.0 | 0.0 | 0.00 | 0.29 | 0.00 | 90 | 1016.5 |
| 20260904092307 | 68 | 87 | 0.0 | 0.0 | 0.00 | 0.29 | 0.00 | 90 | 1016.5 |
| 20260904091529 | 67 | 87 | 0.0 | 0.0 | 0.00 | 0.29 | 0.00 | 90 | 1016.6 |
| 20260904091243 | 68 | 87 | 0.0 | 0.0 | 0.00 | 0.29 | 0.00 | 90 | 1016.5 |
| 20260904090518 | 67 | 87 | 0.0 | 0.0 | 0.00 | 0.29 | 0.00 | 90 | 1016.4 |
| 20260904090011 | 67 | 87 | 0.0 | 0.0 | 0.00 | 0.29 | 0.00 | 90 | 1016.5 |
| 20260904085506 | 68 | 87 | 0.0 | 0.0 | 0.00 | 0.30 | 0.00 | 90 | 1016.5 |
| 20260904084959 | 67 | 87 | 0.0 | 0.0 | 0.00 | 0.31 | 0.00 | 90 | 1016.5 |
| 20260904084453 | 67 | 87 | 0.0 | 1.0 | 0.00 | 0.34 | 0.00 | 90 | 1016.5 |
| 20260904083948 | 67 | 87 | 0.0 | 1.0 | 0.00 | 0.36 | 0.00 | 90 | 1016.5 |
| 20260904083442 | 67 | 87 | 0.0 | 0.0 | 0.00 | 0.37 | 0.00 | 90 | 1016.5 |
| 20260904082936 | 67 | 87 | 0.0 | 3.0 | 0.00 | 0.37 | 0.00 | 90 | 1016.4 |
| 20260904082429 | 67 | 87 | 0.0 | 3.0 | 0.00 | 0.42 | 0.00 | 90 | 1016.4 |
| 20260904081924 | 67 | 87 | 0.0 | 1.0 | 0.00 | 0.51 | 0.00 | 90 | 1016.4 |
| 20260904081419 | 67 | 87 | 0.0 | 0.0 | 0.00 | 0.58 | 0.00 | 90 | 1016.3 |
| 20260904080911 | 67 | 87 | 0.0 | 2.0 | 0.00 | 0.58 | 0.00 | 90 | 1016.2 |
| 20260904080405 | 67 | 87 | 0.0 | 2.0 | 0.00 | 0.58 | 0.00 | 90 | 1016.3 |
| 20260904080121 | 67 | 87 | 0.0 | 3.0 | 0.00 | 0.58 | 0.00 | 90 | 1016.2 |
| 20260904075354 | 67 | 84 | 0.0 | 3.0 | 0.00 | 0.58 | 0.00 | 90 | 1016.1 |
| 20260904074849 | 67 | 83 | 0.0 | 0.0 | 0.00 | 0.59 | 0.00 | 90 | 1016.1 |
| 20260904074341 | 67 | 83 | 0.0 | 0.0 | 0.00 | 0.59 | 0.00 | 90 | 1016.0 |
| 20260904073836 | 67 | 83 | 0.0 | 0.0 | 0.00 | 0.60 | 0.00 | 90 | 1016.1 |
| 20260904073329 | 67 | 83 | 0.0 | 0.0 | 0.00 | 0.63 | 0.00 | 90 | 1016.1 |
| 20260904073042 | 67 | 83 | 0.0 | 2.0 | 0.00 | 0.69 | 0.00 | 90 | 1016.0 |
| 20260904072318 | 67 | 83 | 0.0 | 2.0 | 0.00 | 0.81 | 0.00 | 90 | 1015.9 |
| 20260904071814 | 67 | 83 | 0.0 | 1.0 | 0.00 | 0.91 | 0.00 | 90 | 1015.8 |
| 20260904071534 | 67 | 83 | 0.0 | 1.0 | 0.00 | 0.92 | 0.00 | 90 | 1015.7 |
| 20260904070815 | 67 | 82 | 0.0 | 0.0 | 0.00 | 1.03 | 0.00 | 90 | 1015.8 |
| 20260904070552 | 67 | 82 | 0.0 | 0.0 | 0.00 | 1.04 | 0.00 | 90 | 1015.7 |
| 20260904065809 | 67 | 82 | 0.0 | 0.0 | 0.00 | 1.04 | 0.00 | 90 | 1015.7 |
| 20260904065307 | 67 | 82 | 0.0 | 0.0 | 0.00 | 1.04 | 0.00 | 90 | 1015.7 |
| 20260904064805 | 67 | 82 | 0.0 | 0.0 | 0.00 | 1.04 | 0.00 | 90 | 1015.8 |
| 20260904064526 | 67 | 82 | 0.0 | 0.0 | 0.00 | 1.04 | 0.00 | 90 | 1015.7 |
| 20260904063803 | 67 | 82 | 0.0 | 0.0 | 0.00 | 1.04 | 0.00 | 90 | 1015.5 |
| 20260904063304 | 67 | 82 | 0.0 | 0.0 | 0.00 | 1.04 | 0.00 | 90 | 1015.7 |
| 20260904062801 | 67 | 82 | 0.0 | 0.0 | 0.00 | 1.04 | 0.00 | 90 | 1015.7 |
| 20260904062522 | 67 | 82 | 0.0 | 0.0 | 0.00 | 1.04 | 0.00 | 90 | 1015.7 |
| 20260904061804 | 67 | 82 | 0.0 | 0.0 | 0.00 | 1.05 | 0.00 | 90 | 1015.7 |
| 20260904061259 | 67 | 82 | 0.0 | 0.0 | 0.00 | 1.05 | 0.00 | 90 | 1015.8 |
| 20260904060800 | 67 | 82 | 0.0 | 0.0 | 0.00 | 1.11 | 0.00 | 90 | 1015.7 |
| 20260904060259 | 67 | 82 | 0.0 | 0.0 | 0.00 | 1.26 | 0.00 | 90 | 1015.7 |
| 20260904055758 | 67 | 82 | 0.0 | 0.0 | 0.00 | 1.45 | 0.00 | 90 | 1015.4 |
| 20260904055256 | 67 | 82 | 0.0 | 0.0 | 0.00 | 1.51 | 0.00 | 90 | 1015.4 |
| 20260904054755 | 67 | 82 | 0.0 | 0.0 | 0.00 | 1.56 | 0.00 | 90 | 1015.5 |
| 20260904054251 | 67 | 82 | 0.0 | 0.0 | 0.00 | 1.56 | 0.00 | 90 | 1015.5 |
| 20260904053751 | 67 | 82 | 0.0 | 0.0 | 0.00 | 1.56 | 0.00 | 90 | 1015.5 |
| 20260904053249 | 67 | 82 | 0.0 | 0.0 | 0.00 | 1.57 | 0.00 | 90 | 1015.7 |
| 20260904052749 | 68 | 82 | 0.0 | 0.0 | 0.00 | 1.68 | 0.00 | 90 | 1015.7 |
| 20260904052250 | 68 | 82 | 0.0 | 0.0 | 0.00 | 1.70 | 0.00 | 90 | 1015.8 |
| 20260904051750 | 68 | 82 | 0.0 | 0.0 | 0.00 | 1.79 | 0.00 | 90 | 1015.8 |
| 20260904051249 | 68 | 82 | 0.0 | 0.0 | 0.00 | 1.98 | 0.00 | 90 | 1015.8 |
| 20260904051013 | 68 | 82 | 0.0 | 0.0 | 0.00 | 2.30 | 0.00 | 90 | 1015.8 |
| 20260904050247 | 68 | 82 | 0.0 | 0.0 | 0.00 | 2.71 | 0.00 | 90 | 1015.8 |
| 20260904045747 | 68 | 82 | 0.0 | 0.0 | 0.00 | 2.71 | 0.00 | 90 | 1015.8 |
| 20260904045247 | 68 | 82 | 0.0 | 0.0 | 0.00 | 2.71 | 0.00 | 89 | 1015.8 |
| 20260904045016 | 68 | 82 | 0.0 | 0.0 | 0.00 | 2.71 | 0.00 | 89 | 1015.7 |
| 20260904044243 | 68 | 82 | 0.0 | 0.0 | 0.00 | 2.71 | 0.00 | 89 | 1015.8 |
| 20260904043743 | 68 | 82 | 0.0 | 0.0 | 0.00 | 2.71 | 0.00 | 89 | 1015.8 |
| 20260904043246 | 68 | 82 | 0.0 | 0.0 | 0.00 | 2.71 | 0.00 | 90 | 1015.7 |
| 20260904042744 | 68 | 82 | 0.0 | 0.0 | 0.00 | 2.71 | 0.00 | 89 | 1015.5 |
| 20260904042243 | 68 | 82 | 0.0 | 0.0 | 0.00 | 2.71 | 0.00 | 89 | 1015.3 |
| 20260904041743 | 68 | 82 | 0.0 | 0.0 | 0.00 | 2.71 | 0.00 | 89 | 1015.1 |
| 20260904041243 | 68 | 82 | 0.0 | 0.0 | 0.00 | 2.71 | 0.00 | 89 | 1015.0 |
| 20260904041223 | 68 | 82 | 0.0 | 0.0 | 0.00 | 2.71 | 0.00 | 89 | 1015.0 |
| 20260904040244 | 68 | 82 | 0.0 | 0.0 | 0.00 | 2.71 | 0.00 | 89 | 1014.9 |
| 20260904035739 | 68 | 82 | 0.0 | 0.0 | 0.00 | 2.71 | 2.71 | 88 | 1015.0 |
| 20260904035230 | 68 | 82 | 0.0 | 0.0 | 0.00 | 2.71 | 2.71 | 88 | 1015.1 |
| 20260904034946 | 68 | 82 | 0.0 | 0.0 | 0.00 | 2.71 | 2.71 | 88 | 1014.8 |
| 20260904034219 | 69 | 82 | 0.0 | 0.0 | 0.01 | 2.71 | 2.71 | 88 | 1014.6 |
| 20260904033713 | 69 | 82 | 0.0 | 0.0 | 0.01 | 2.71 | 2.71 | 87 | 1014.8 |
| 20260904033206 | 69 | 82 | 0.0 | 0.0 | 0.01 | 2.71 | 2.71 | 88 | 1014.8 |
| 20260904032701 | 69 | 82 | 0.0 | 2.0 | 0.02 | 2.71 | 2.71 | 88 | 1014.7 |
| 20260904032155 | 69 | 81 | 1.0 | 7.0 | 0.02 | 2.71 | 2.71 | 88 | 1014.8 |
| 20260904031649 | 69 | 88 | 1.0 | 7.0 | 0.03 | 2.71 | 2.71 | 88 | 1014.9 |
| 20260904031142 | 69 | 57 | 0.0 | 3.0 | 0.03 | 2.71 | 2.71 | 88 | 1014.9 |
| 20260904030636 | 69 | 68 | 0.0 | 3.0 | 0.03 | 2.71 | 2.71 | 88 | 1015.3 |
| 20260904030131 | 69 | 68 | 1.0 | 4.0 | 0.04 | 2.71 | 2.71 | 87 | 1015.4 |
| 20260904025625 | 69 | 128 | 0.0 | 4.0 | 0.04 | 2.71 | 2.71 | 87 | 1015.7 |
| 20260904025118 | 69 | 77 | 1.0 | 6.0 | 0.04 | 2.71 | 2.71 | 87 | 1015.8 |
| 20260904024612 | 69 | 76 | 1.0 | 8.0 | 0.04 | 2.71 | 2.71 | 87 | 1015.8 |
| 20260904024106 | 69 | 78 | 2.0 | 8.0 | 0.03 | 2.70 | 2.70 | 87 | 1015.9 |
| 20260904023600 | 70 | 87 | 2.0 | 10.0 | 0.04 | 2.70 | 2.70 | 87 | 1016.1 |
| 20260904023055 | 70 | 89 | 3.0 | 10.0 | 0.04 | 2.70 | 2.70 | 86 | 1016.4 |
| 20260904022549 | 70 | 67 | 3.0 | 10.0 | 0.03 | 2.69 | 2.69 | 86 | 1016.6 |
| 20260904022300 | 70 | 89 | 3.0 | 11.0 | 0.03 | 2.69 | 2.69 | 86 | 1017.0 |
| 20260904021537 | 71 | 84 | 3.0 | 10.0 | 0.02 | 2.68 | 2.68 | 86 | 1017.3 |
| 20260904021030 | 71 | 60 | 2.0 | 11.0 | 0.02 | 2.68 | 2.68 | 85 | 1017.3 |
| 20260904020524 | 71 | 77 | 1.0 | 11.0 | 0.01 | 2.67 | 2.67 | 85 | 1017.4 |
| 20260904020018 | 72 | 107 | 1.0 | 7.0 | 0.01 | 2.67 | 2.67 | 85 | 1017.5 |
| 20260904015512 | 72 | 150 | 1.0 | 7.0 | 0.01 | 2.67 | 2.67 | 84 | 1017.5 |
| 20260904015006 | 72 | 156 | 1.0 | 10.0 | 0.01 | 2.67 | 2.67 | 84 | 1017.5 |
| 20260904014501 | 73 | 298 | 2.0 | 10.0 | 0.01 | 2.67 | 2.67 | 84 | 1017.4 |
| 20260904014217 | 73 | 105 | 3.0 | 10.0 | 0.01 | 2.67 | 2.67 | 85 | 1017.6 |
| 20260904013448 | 74 | 130 | 3.0 | 10.0 | 0.00 | 2.66 | 2.66 | 85 | 1017.6 |
| 20260904013210 | 74 | 155 | 2.0 | 12.0 | 0.00 | 2.66 | 2.66 | 86 | 1017.5 |
| 20260904012439 | 74 | 188 | 2.0 | 12.0 | 0.00 | 2.66 | 2.66 | 87 | 1017.4 |
| 20260904012156 | 74 | 68 | 1.0 | 7.0 | 0.00 | 2.66 | 2.66 | 88 | 1017.3 |
| 20260904011426 | 74 | 76 | 0.0 | 3.0 | 0.00 | 2.66 | 2.66 | 89 | 1017.2 |
| 20260904010918 | 74 | 76 | 0.0 | 0.0 | 0.00 | 2.66 | 2.66 | 89 | 1017.1 |
| 20260904010413 | 74 | 76 | 0.0 | 0.0 | 0.00 | 2.66 | 2.66 | 88 | 1016.9 |
| 20260904010130 | 74 | 76 | 0.0 | 0.0 | 0.00 | 2.66 | 2.66 | 88 | 1016.4 |
| 20260904005402 | 74 | 76 | 0.0 | 0.0 | 0.00 | 2.66 | 2.66 | 88 | 1016.1 |
| 20260904005113 | 74 | 76 | 0.0 | 0.0 | 0.00 | 2.66 | 2.66 | 88 | 1016.1 |
| 20260904004611 | 74 | 76 | 0.0 | 0.0 | 0.00 | 2.66 | 2.66 | 88 | 1016.0 |
| 20260904003849 | 75 | 76 | 0.0 | 0.0 | 0.00 | 2.66 | 2.66 | 87 | 1016.2 |
| 20260904003606 | 75 | 76 | 0.0 | 0.0 | 0.01 | 2.66 | 2.66 | 87 | 1016.1 |
| 20260904003109 | 75 | 76 | 0.0 | 0.0 | 0.01 | 2.66 | 2.66 | 87 | 1016.2 |
| 20260904002349 | 75 | 76 | 0.0 | 0.0 | 0.01 | 2.66 | 2.66 | 87 | 1016.2 |
| 20260904001849 | 75 | 76 | 0.0 | 0.0 | 0.01 | 2.66 | 2.66 | 87 | 1016.1 |
| 20260904001347 | 75 | 76 | 0.0 | 1.0 | 0.01 | 2.66 | 2.66 | 86 | 1016.1 |
| 20260904000844 | 75 | 76 | 0.0 | 3.0 | 0.02 | 2.66 | 2.66 | 87 | 1016.0 |
| 20260904000602 | 75 | 76 | 1.0 | 8.0 | 0.02 | 2.66 | 2.66 | 87 | 1016.2 |